Location: Lower Charlebois Ditch
(38.7699°N, 119.0135°W)
Time: 01:52:05
(UTC+00:00)

Daily predictions for brighter satellites

Satellite Brightness Start Highest point End
(mag) Time Altitude Azimuth Time Altitude Azimuth Time Altitude Azimuth
Cosmos 1666 Rocket 4.3 00:56:21 10° NNE 01:00:18 31° ENE 01:04:14 10° SE
Lacrosse 5 rocket 1.2 00:56:47 10° SW 01:00:29 73° NW 01:04:05 10° NE
Cosmos 1818 4.1 00:55:21 10° NW 01:00:48 68° WSW 01:06:11 10° SSE
Cosmos 1295 Rocket 4.5 00:55:42 10° N 01:01:53 76° E 01:08:08 10° SSE
Okean O Rocket 2.0 00:59:18 10° SE 01:03:21 40° ENE 01:07:27 10° N
SMAP 3.3 00:59:20 10° SSE 01:03:47 48° ENE 01:08:17 10° N
H-2A R/B 3.4 01:00:53 10° S 01:04:39 60° W 01:08:28 10° NNW
Cosmos 1862 4.2 01:01:04 10° NNW 01:05:00 54° W 01:08:53 10° S
Cosmos 2181 Rocket 4.4 01:01:02 10° SSE 01:07:06 46° E 01:13:07 10° NNE
Meteor 1-4 Rocket 3.9 01:08:35 10° SE 01:11:18 20° E 01:14:00 10° NE
Envisat 3.2 01:07:27 10° S 01:12:31 79° WSW 01:17:36 10° NNW
CORIOLIS 4.3 01:07:48 10° SSE 01:13:02 53° ENE 01:18:19 10° N
CZ-4C R/B 4.1 01:10:31 10° N 01:14:01 47° WNW 01:17:28 10° SSW
CZ-4B R/B 3.1 01:11:42 10° SSE 01:17:00 70° ENE 01:22:17 10° N
Cosmos 2237 Rocket 3.7 01:12:06 10° SW 01:17:13 35° WNW 01:22:23 10° N
H-2A R/B 2.3 01:13:01 10° N 01:17:14 74° WNW 01:21:31 10° SSW
NOAA 11 4.4 01:13:45 10° SE 01:18:52 45° ENE 01:24:02 10° N
AQUARIUS 4.2 01:15:09 10° SSE 01:19:34 62° ENE 01:24:01 10° N
CZ-2C R/B 4.4 01:16:49 10° E 01:19:37 15° ENE 01:22:21 10° NNE
USA 281 4.3 01:15:37 10° E 01:20:15 21° NE 01:24:53 10° N
CZ-4B R/B 1.7 01:18:59 10° NNE 01:21:54 38° E 01:24:52 10° S
Cosmos 773 Rocket 4.1 01:17:11 10° S 01:22:18 57° ESE 01:27:30 10° NNE
H-2A R/B 3.2 01:20:03 10° S 01:24:19 60° WSW 01:28:27 10° NNW
Radarsat Rocket 4.3 01:18:25 10° SSE 01:24:23 81° WSW 01:31:01 10° NNW
Cosmos 1943 4.5 01:22:07 10° SE 01:26:07 20° E 01:29:17 13° ENE
Cosmos 1633 Rocket 3.2 01:22:47 10° N 01:27:02 49° E 01:31:15 10° SSE
SKYMED 2 4.3 01:24:29 10° NNE 01:28:23 32° E 01:32:15 10° SSE
Cosmos 389 Rocket 3.9 01:27:55 10° SSW 01:31:08 38° WNW 01:34:21 10° N
Cosmos 2369 Rocket 3.3 01:27:34 10° N 01:32:02 23° NE 01:36:27 10° ESE
Cosmos 1606 3.9 01:28:20 10° SSW 01:32:05 46° W 01:35:51 10° N
Meteor 1-25 Rocket 4.2 01:30:55 10° N 01:36:32 64° E 01:42:11 10° SSE
ERS-2 2.2 01:33:48 10° NNE 01:37:25 57° E 01:41:01 10° S
CZ-4 R/B 3.3 01:40:23 13° NE 01:40:23 13° NE 01:41:11 10° NNE
Cosmos 1939 Rocket 3.2 01:38:05 10° SE 01:41:41 38° ENE 01:45:20 10° N
CREW DRAGON DEMO-1 DEB 2.6 01:39:21 10° NW 01:42:20 78° NE 01:44:39 15° SE
Cosmos 1943 Rocket 2.4 01:38:43 10° N 01:44:01 44° ENE 01:49:20 10° SE
CZ-3B R/B 1.6 01:40:50 10° SSW 01:44:59 45° SE 01:45:50 30° E
IRS-1C Rocket 4.4 01:40:31 10° SE 01:45:25 41° ENE 01:50:22 10° N
CENTAUR R/B 3.9 01:44:02 10° SE 01:47:04 15° ESE 01:47:09 15° ESE
Cosmos 2218 Rocket 3.9 01:41:28 10° N 01:47:37 71° E 01:53:45 10° SSE
USA 81 4.0 01:43:26 10° N 01:48:44 79° E 01:54:01 10° S
FengYun 1-2 T 4.2 01:43:59 10° SSE 01:49:32 90° E 01:55:04 10° NNW
H-2A R/B 3.3 01:51:28 20° NE 01:51:28 20° NE 01:54:37 10° NNE
Cosmos 44 3.4 01:46:22 10° NNW 01:51:44 79° ENE 01:57:09 10° SE
Cosmos 2366 rocket 3.9 01:46:12 10° N 01:52:23 74° E 01:58:30 10° SSE
ATLAS CENTAUR R/B 4.5 01:35:32 10° NW 01:56:51 67° NE 02:03:51 13° ESE
YAOGAN 1 4.2 01:59:59 18° NNE 01:59:59 18° NNE 02:01:31 10° NNE
Cosmos 489 Rocket 4.4 01:53:35 10° SSW 01:59:46 82° ESE 02:06:01 10° NNE
BREEZE-M R/B 2.2 02:03:05 10° WNW 02:06:04 74° SW 02:06:15 65° SSE
Cosmos 2297 4.0 02:00:44 10° NNW 02:06:24 69° WSW 02:12:03 10° SSE
Cosmos 1470 Rocket 3.4 02:02:32 10° N 02:06:52 78° E 02:11:10 10° S
SL-16 R/B 3.5 02:03:06 10° SW 02:08:20 38° WNW 02:13:36 10° N
Cosmos 2228 Rocket 3.5 02:04:57 10° SSE 02:09:09 39° E 02:09:52 36° ENE
Cosmos 1515 Rocket 3.5 02:05:59 10° S 02:10:21 89° E 02:14:47 10° N
NOSS 3-2 (A) 3.7 02:06:50 10° S 02:11:57 41° ESE 02:13:46 33° ENE
Cosmos 1812 3.6 02:08:32 10° SSE 02:11:05 31° SE 02:11:05 31° SE
Cosmos 1151 Rocket 4.4 02:09:57 10° SSW 02:13:57 38° WNW 02:17:56 10° N
Cosmos 1680 Rocket 4.3 02:11:35 10° SSE 02:15:47 31° ESE 02:15:47 31° ESE
COSMO-SKYMED 1 2.8 02:12:10 10° N 02:16:30 71° WNW 02:20:48 10° SSW
Cosmos 1782 3.4 02:12:58 10° SSW 02:16:50 57° W 02:20:46 10° N
Cosmos 1602 4.1 02:17:03 10° NNW 02:20:55 65° W 02:24:45 10° S
CZ-2D R/B 3.1 02:18:11 10° SSE 02:21:59 87° ENE 02:25:50 10° N
MOS 1 Rocket 3.6 02:19:55 19° NNE 02:23:53 62° E 02:29:11 10° S
Cosmos 1538 Rocket 4.4 02:19:14 10° SSW 02:24:32 67° WNW 02:29:12 14° NNE
USA 215 3.4 02:21:49 23° NE 02:26:04 68° NW 02:32:31 10° WSW
X-37B 1.6 02:23:31 10° W 02:26:11 41° NW 02:26:11 41° NW
Meteor 2-6 Rocket 4.0 02:23:27 10° S 02:29:04 74° E 02:32:54 20° NNE
USA 238 DEB 3.7 02:23:03 10° S 02:29:20 53° ESE 02:31:13 41° ENE
USA 238 3.7 02:23:09 10° S 02:29:26 52° ESE 02:31:16 41° ENE
Cosmos 2263 4.3 02:25:05 10° NNW 02:30:29 47° ENE 02:30:34 47° ENE
Okean-O 2.5 02:31:54 10° SSE 02:36:19 84° ENE 02:40:45 10° N
Cosmos 1933 Rocket 3.8 02:32:43 10° NNW 02:37:11 71° W 02:41:36 10° S
Nadezhda 3 Rocket 3.9 02:31:30 10° S 02:37:51 83° E 02:44:15 10° N
Cosmos 1689 Rocket 3.8 02:38:54 33° W 02:38:54 33° W 02:41:14 10° SW
Lacrosse 5 rocket 3.7 02:38:57 10° NW 02:40:09 11° NNW 02:40:39 11° NNW
Cosmos 1656 Rocket 4.5 02:38:08 10° N 02:41:47 35° NNE 02:41:47 35° NNE
Cosmos 1821 Rocket 3.9 02:46:57 10° N 02:53:14 87° W 02:59:34 10° S
USA 267 3.5 02:56:34 49° NNE 02:56:34 49° NNE 03:02:44 10° NW
CZ-2C R/B 3.4 02:53:59 10° S 02:59:03 60° W 03:03:53 10° NNW
Cosmos 1603 4.4 02:57:59 10° SW 03:03:27 51° WNW 03:05:29 35° N
USA 281 3.2 02:57:29 10° SSE 03:04:02 78° WSW 03:10:38 10° NNW
Cosmos 1943 3.8 03:04:12 10° SW 03:09:41 52° WNW 03:11:10 41° NNW
CZ-4 R/B 4.1 03:09:45 10° SSW 03:16:24 13° NW 03:16:53 10° NNW
Cosmos 2369 Rocket 2.9 03:10:52 10° NNW 03:16:20 51° WSW 03:19:05 28° SSW
Cosmos 1943 Rocket 4.3 03:23:07 10° NW 03:27:25 23° WSW 03:31:44 10° SSW
H-2A R/B 3.6 03:24:48 10° S 03:32:06 30° NW 03:34:57 10° NNW
NOSS 3-2 (C) 4.4 03:29:41 10° SW 03:32:46 36° SW 03:32:46 36° SW
CENTAUR R/B 3.3 03:30:49 10° SW 03:34:23 42° SW 03:34:23 42° SW
CENTAUR R/B 4.0 11:10:33 45° NE 11:10:33 45° NE 11:18:42 10° ESE
Atlas Centaur 2 4.5 11:17:04 21° SE 11:17:04 21° SE 11:19:32 10° ESE
Milstar 3 Cent rocket 4.1 11:26:49 32° SE 11:26:49 32° SE 11:34:02 10° ESE
ATLAS 2AS CENTAUR R/B 3.7 11:25:44 47° SE 11:26:23 48° ESE 11:33:53 10° NE
NOSS 3-2 (A) 4.3 11:38:28 63° SE 11:38:28 63° SE 11:45:31 10° SSE
Lacrosse 4 Rocket 4.4 11:39:59 14° E 11:39:59 14° E 11:41:10 10° E
